Regional Weather Roundup
Issued by NWS

Home | Current Version | Previous Version | Graphics & Text | Print | Product List | Glossary On
Versions: 1 2 3 4 5 6 7 8 9 10 11 12 13 14 15 16 17 18 19 20 21 22 23 24 25 26 27 28 29 30 31 32 33 34 35 36 37 38 39 40 41 42 43 44 45 46 47 48 49 50
000
ASUS43 KIND 221909
RWRIN

WEATHER ROUNDUP FOR INDIANA
NATIONAL WEATHER SERVICE INDIANAPOLIS IN
200 PM EST WED NOV 22 2017

NOTE: "FAIR" INDICATES FEW OR NO CLOUDS BELOW 12,000 FEET WITH NO
SIGNIFICANT WEATHER AND/OR OBSTRUCTIONS TO VISIBILITY.

* - STATION DOES NOT REPORT WEATHER SUCH AS PRECIPITATION OR FOG.

+ - STATION NOT QUALITY CONTROLLED BY THE NATIONAL WEATHER SERVICE.
    USE DATA WITH CAUTION...ESPECIALLY DEWPOINT AND RELATIVE
    HUMIDITY OBSERVATIONS.

INZ001>003-010>013-019-020-222000-
NORTHWEST INDIANA

CITY           SKY/WX    TMP DP  RH WIND       PRES   REMARKS
GARY /AIRPORT/ SUNNY     34  12  40 W12       30.32F WCI  25
KNOX *+        MOSUNNY   36  25  64 CALM      30.30F
LA PORTE +     CLOUDY    35  23  62 W12       30.30F WCI  27
MICHIGAN CITY+ CLOUDY    34  25  69 NW8       30.31F WCI  27
MONTICELLO +   SUNNY     35  20  55 NW6       30.30F WCI  30
RENSSELAER +   SUNNY     36  14  41 W7        30.32S WCI  30
VALPARAISO     SUNNY     38  21  50 MISG      30.30F

$$

LMZ046-743>745-222000-
SOUTHERN LAKE MICHIGAN

STATION/POSITION TIME  TEMP    WIND        PRES    WAVE
                       AIR SEA DIR/SP/G            HT
                 (UTC) (F)     (DEG/KT/KT) (MB)    (FT)
BURNS HARBOR     1840   32     300/  7/ 10 1026.8F
MICHIGAN CITY    1840   31     230/ 12/ 14   N/A

$$

INZ004-005-014>016-021>024-222000-
NORTH CENTRAL INDIANA

CITY           SKY/WX    TMP DP  RH WIND       PRES   REMARKS
ELKHART        CLOUDY    36  19  51 W6        30.29F WCI  31
GOSHEN         CLOUDY    34  19  54 NW7       30.29F WCI  28
LOGANSPORT +   PTSUNNY   36  23  60 W6        30.30F WCI  31
PERU/GRISSOM   SUNNY     37  22  55 W5        30.28F WCI  33
ROCHESTER +    PTSUNNY   37  23  56 W3        30.29F
SOUTH BEND     CLOUDY    35  23  61 W8        30.29F WCI  29
WARSAW +       CLOUDY    34  23  64 NW5       30.29S WCI  30

$$

INZ006>009-017-018-025>027-222000-
NORTHEAST INDIANA

CITY           SKY/WX    TMP DP  RH WIND       PRES   REMARKS
AUBURN +       MOSUNNY   36  19  51 NW7       30.28F WCI  30
FORT WAYNE     MOSUNNY   38  22  52 NW5       30.29F WCI  34
HUNTINGTON +   CLOUDY    37  21  52 W7        30.28F WCI  31
KENDALLVILLE + CLOUDY    35  21  57 NW7       30.27F WCI  29

$$

INZ028-029-035-036-043>045-051>053-222000-
WEST CENTRAL INDIANA

CITY           SKY/WX    TMP DP  RH WIND       PRES   REMARKS
CRAWFORDSVL +  PTSUNNY   34  24  68 NW3       30.30F
GREENCASTLE +  SUNNY     36  21  55 W3        30.30F
LAFAYETTE      PTSUNNY   35  23  61 VRB6      30.31F WCI  30
TERRE HAUTE    SUNNY     37  20  50 CALM      30.32F

$$

INZ030>032-037>040-046>048-054>057-064-065-222000-
CENTRAL INDIANA

CITY           SKY/WX    TMP DP  RH WIND       PRES   REMARKS
ANDERSON       MOSUNNY  N/A N/A N/A N6        30.28F
CP ATTERBURY + SUNNY     41  25  52 N5        30.30F
COLUMBUS       MOSUNNY   37  21  52 N5        30.30F WCI  34
FRANKFORT +    PTSUNNY   39  26  58 W5        30.31F WCI  36
GREENWOOD *+   SUNNY     41  24  51 NW5       30.29F
INDIANAPOLIS   MOSUNNY   38  23  55 N7        30.30F WCI  33
-EAGLE CREEK   SUNNY     37  22  54 NW5       30.29F WCI  33
KOKOMO +       MOSUNNY   36  23  59 W6        30.30F WCI  31
MARION +       CLOUDY    35  24  64 N5        30.30S HAZE    WCI  31
MT COMFORT *+  MOSUNNY   37  27  65 W3        30.29F
SHELBYVILLE    SUNNY     40  21  46 NW6       30.28F WCI  36
ZIONSVILLE +   PTSUNNY   35  23  63 W5        30.30F WCI  31

$$

INZ033-034-041-042-049-050-058-059-222000-
EAST CENTRAL INDIANA

CITY           SKY/WX    TMP DP  RH WIND       PRES   REMARKS
MUNCIE         CLOUDY    37  22  54 NW6       30.28F WCI  32
RICHMOND +     CLOUDY    34  23  64 N7        30.26F WCI  28

$$

INZ060-061-067>069-081>083-085>088-222000-
SOUTHWEST INDIANA

CITY           SKY/WX    TMP DP  RH WIND       PRES   REMARKS
EVANSVILLE     SUNNY     39  24  55 VRB3      30.32F
HUNTINGBURG +  SUNNY     39  23  52 NW6       30.31F WCI  35
WASHINGTON +   SUNNY     38  19  47 N8        30.32S WCI  32

$$

INZ062-063-066-070>080-084-089>092-222000-
SOUTH CENTRAL AND SOUTHEAST INDIANA

CITY           SKY/WX    TMP DP  RH WIND       PRES   REMARKS
BEDFORD +      SUNNY     39  21  48 W5        30.29F WCI  36
BLOOMINGTON    SUNNY     39  22  50 NW5       30.29F WCI  36
MADISON *+     SUNNY     41  23  48 NW6       30.29F
NORTH VERNON + SUNNY     36  23  60 N6        30.29F WCI  31
SEYMOUR +      SUNNY     41  23  48 NW7       30.29F

$$




USA.gov is the U.S. government's official web portal to all federal, state and local government web resources and services.